Lapse_Rate
6.4 6.5 6.7 6.9 6.7 6.7 6.9 7.1 7.4 7.9 7.8 7.8 8.1 8.1 8.5 8.9 9.3 9.6 9.2 9.0 9.1 9.2 9.1 8.8 8.6 8.6 8.5 8.3 8.3 7.9 7.9 8.0 7.4 7.2 7.1 7.0 6.9 6.7 6.6 6.7 6.8 6.7 6.5 6.2
6.2 6.6 6.8 6.7 6.7 6.7 6.7 7.0 7.4 7.7 7.8 7.5 8.0 8.1 8.6 9.0 9.5 9.6 9.3 8.9 9.1 9.1 9.1 8.9 8.7 8.6 8.6 8.5 8.2 8.0 7.8 7.8 7.6 7.5 7.3 7.1 7.1 6.8 6.7 6.7 6.7 6.5 6.3 6.3
6.1 6.6 6.9 6.8 6.6 6.6 6.7 6.8 7.4 7.6 7.5 7.6 7.8 8.3 8.6 9.0 9.2 9.4 9.4 9.3 9.5 9.2 9.1 8.9 8.8 8.6 8.5 8.4 8.1 7.9 7.8 7.7 7.7 7.6 7.3 7.4 7.4 7.0 6.8 6.7 6.6 6.4 6.3 6.4
6.0 6.3 6.6 6.4 6.5 6.6 6.8 7.2 7.3 7.4 7.2 7.9 7.6 8.4 8.7 9.0 9.1 9.2 9.4 9.4 9.1 9.0 9.0 8.9 8.9 8.6 8.5 8.4 8.2 8.1 7.9 7.9 7.7 7.4 7.6 7.7 7.5 7.2 6.8 6.5 6.3 6.2 6.4 6.3
6.3 6.8 6.6 6.6 6.9 6.7 6.7 7.1 7.0 7.2 7.3 7.5 8.0 7.9 8.5 8.8 9.1 9.1 9.0 8.9 9.1 9.1 9.2 9.2 9.0 8.6 8.4 8.4 8.1 8.1 8.0 7.9 7.4 7.3 7.6 7.6 7.4 7.1 6.7 6.4 6.4 6.3 6.3 6.2
6.4 6.4 6.5 6.5 6.6 6.7 6.7 6.8 7.0 7.4 7.5 7.5 8.0 8.1 8.2 8.4 8.8 8.9 8.9 8.8 8.9 9.1 9.2 9.2 9.2 8.9 8.5 8.4 8.3 8.1 7.8 7.5 7.6 7.6 7.7 7.7 7.4 7.3 6.9 6.5 6.4 6.5 6.4 6.2
6.6 6.6 6.8 6.8 6.7 6.7 6.8 7.0 7.6 8.0 8.0 8.2 8.0 7.8 8.3 8.1 8.6 8.7 8.7 8.7 8.8 9.0 9.2 9.2 9.1 8.8 8.6 8.3 8.2 7.9 7.6 7.9 7.8 7.8 7.6 7.5 7.4 7.2 7.1 6.6 6.4 6.4 6.2 6.2
6.8 7.2 7.1 7.2 7.2 7.2 7.3 7.4 7.8 7.8 8.1 8.5 7.6 7.7 8.2 8.3 8.3 8.4 8.4 8.5 8.7 8.8 9.0 8.7 8.3 8.4 8.6 8.4 8.0 7.9 8.0 8.0 7.9 7.8 7.7 7.6 7.4 7.2 6.8 6.3 6.1 6.1 6.2 6.1
7.0 6.9 7.1 7.1 7.0 7.0 7.2 7.2 7.7 7.6 7.4 7.4 7.9 7.9 8.2 8.4 8.6 8.2 8.2 8.3 8.4 8.7 8.6 8.5 8.1 8.4 8.6 8.4 8.2 7.9 8.0 7.9 8.0 7.9 7.5 7.6 7.2 6.7 6.3 6.2 6.2 6.2 6.1 6.0
7.1 7.0 7.3 7.2 7.2 7.1 7.0 7.2 7.5 7.4 7.5 7.6 7.8 7.1 8.1 8.6 8.8 8.6 8.5 8.4 8.5 8.4 8.5 8.5 8.4 8.5 8.5 8.5 8.1 8.1 8.0 7.9 7.8 7.7 7.5 7.3 6.8 6.4 6.1 6.0 6.0 6.1 5.8 5.6
7.4 7.3 7.6 7.2 7.3 7.8 7.5 7.3 7.3 7.5 7.4 7.7 7.5 7.7 8.0 8.6 8.6 8.6 8.6 8.7 8.9 8.8 8.5 8.5 8.4 8.4 8.5 8.5 8.3 8.2 8.0 7.9 7.8 7.7 7.4 6.9 6.6 6.3 6.1 5.9 5.9 5.7 5.7 5.6
7.2 7.1 7.1 7.6 7.8 7.8 7.8 7.5 7.5 7.7 7.4 6.8 6.7 7.0 7.7 8.3 8.8 8.9 9.0 8.9 9.0 8.9 8.9 8.5 8.3 8.3 8.5 8.5 8.2 8.1 8.0 7.9 7.8 7.6 7.1 6.6 6.4 6.2 6.1 5.9 5.9 5.9 5.8 5.7
6.8 7.0 7.4 7.8 8.2 7.9 7.7 7.7 7.7 7.7 7.5 7.4 7.6 7.3 7.9 8.3 8.6 9.0 9.2 9.1 8.9 8.8 8.8 8.8 8.7 8.6 8.4 8.2 8.4 8.2 8.1 7.9 7.8 7.3 6.6 6.4 6.2 6.1 6.0 5.9 6.0 5.9 5.9 5.9
6.6 6.7 7.1 7.8 7.8 7.6 7.8 7.8 7.7 7.4 7.2 7.6 7.3 7.7 7.9 8.4 8.5 8.8 9.2 9.0 8.9 9.1 9.0 8.9 8.8 8.5 8.3 8.2 8.3 8.2 8.0 7.8 7.5 6.9 6.5 6.2 5.9 6.0 6.1 6.2 6.1 5.9 5.9 5.9
6.3 6.2 6.5 6.7 7.1 7.2 7.5 7.9 7.9 7.5 7.7 7.0 7.7 7.5 8.2 8.4 8.6 8.9 9.3 9.3 9.1 9.0 9.2 9.2 9.0 8.8 8.3 8.2 8.1 7.9 7.8 7.4 7.0 6.7 6.4 6.1 6.2 6.1 6.4 6.3 6.1 5.9 5.8 5.8
6.3 5.9 6.0 6.3 6.7 6.8 6.6 7.1 7.7 7.8 8.1 7.9 8.2 7.7 8.4 8.5 8.8 8.7 9.1 9.2 9.4 9.2 9.2 9.2 9.0 8.7 8.1 7.9 7.8 7.7 7.5 7.1 6.8 6.5 6.5 6.4 6.2 6.3 6.3 6.2 6.1 5.8 5.7 5.8
5.7 5.8 5.8 6.1 6.4 6.6 6.5 6.9 7.8 8.2 8.1 8.3 8.0 8.2 8.5 8.6 8.8 8.8 8.9 9.0 9.3 9.3 9.2 9.2 9.0 8.3 8.0 7.5 7.6 7.8 7.3 6.9 6.6 6.4 6.5 6.3 6.3 6.3 6.1 6.0 5.9 5.8 5.7 5.9
5.5 5.6 5.6 5.9 6.1 6.2 6.5 7.2 7.4 7.8 7.9 8.0 8.1 8.4 8.8 8.9 8.9 8.8 8.8 9.0 9.0 9.2 9.3 9.3 8.9 8.2 7.7 7.5 7.5 7.6 7.1 6.8 6.7 6.6 6.4 6.3 6.2 6.2 5.9 5.8 5.7 5.8 5.8 5.8
6.3 5.9 5.5 5.9 6.2 6.3 6.3 6.8 7.2 7.3 7.3 7.4 7.9 8.6 8.8 8.9 9.0 9.1 9.3 9.2 9.1 9.1 9.2 9.2 8.7 8.0 7.6 7.2 7.4 7.3 6.9 7.0 6.7 6.6 6.5 6.3 6.2 6.1 5.7 5.7 5.7 5.7 5.8 5.6
6.3 5.7 5.0 5.5 5.9 6.3 6.7 7.0 7.1 6.7 6.8 7.6 7.7 8.0 8.4 8.6 8.9 9.2 9.1 8.9 8.9 9.0 9.2 9.0 8.8 8.0 7.5 7.4 7.4 7.2 6.9 6.6 6.5 6.6 6.3 6.2 6.0 5.9 5.6 5.4 5.5 5.7 5.7 5.5
6.5 5.7 4.9 5.2 5.5 5.5 5.7 7.0 6.9 6.4 7.1 7.6 7.4 7.5 7.6 7.7 8.0 8.6 8.9 9.0 9.0 8.9 8.9 8.8 8.3 7.2 6.9 7.4 7.2 7.0 6.7 6.5 6.3 6.3 6.4 6.2 5.9 5.7 5.4 5.5 5.6 5.6 5.5 5.5
6.2 6.0 5.4 5.0 5.1 5.3 5.9 6.1 6.2 6.6 6.8 6.8 7.3 7.7 7.8 7.7 7.9 8.0 8.5 8.9 9.0 8.9 8.6 8.6 8.1 6.8 7.0 7.2 7.0 6.8 6.3 6.2 6.2 6.1 6.3 5.9 5.7 5.6 5.6 5.6 5.6 5.5 5.6 5.6
5.8 6.1 6.0 6.0 5.9 6.1 6.3 6.4 6.2 6.1 5.8 6.7 6.4 6.8 6.9 7.4 7.8 8.3 8.4 8.5 8.5 8.6 8.5 8.2 7.9 7.4 7.1 7.2 6.9 6.6 6.2 5.9 6.1 6.1 6.1 5.7 5.7 5.7 5.6 5.6 5.4 5.6 5.6 5.5
5.4 5.6 5.4 5.5 6.0 6.2 6.1 6.4 6.2 6.1 6.1 6.2 6.4 6.7 6.9 7.1 7.7 8.2 8.2 8.1 8.4 8.2 8.2 8.1 8.1 7.7 7.3 7.0 6.5 6.4 6.2 6.3 6.3 6.0 5.8 5.6 5.8 5.6 5.6 5.4 5.6 5.7 5.6 5.4
5.2 5.1 5.9 5.9 5.8 6.4 6.4 5.7 5.5 5.6 5.6 5.7 6.2 6.6 7.2 7.2 7.3 7.8 7.9 8.1 7.9 7.7 8.0 7.8 7.5 7.1 6.9 6.7 6.8 6.3 6.3 6.4 6.0 5.7 5.7 5.7 5.7 5.5 5.5 5.5 5.7 5.6 5.4 5.5
5.5 6.6 6.0 5.9 5.8 5.4 5.4 5.6 5.3 5.4 5.4 5.6 5.8 6.7 6.9 7.1 7.3 7.3 7.4 7.7 7.7 7.8 7.9 7.5 7.1 6.9 6.7 6.7 6.3 6.3 6.4 6.0 5.7 5.7 5.7 5.7 5.6 5.6 5.7 5.6 5.7 5.6 5.4 5.6
Wind_Speed
3 5 10 8 4 1 1 2 6 7 7 5 6 12 15 10 8 11 15 18 15 16 7 7 6 5 6 5 9 11 12 13 11 9 8 6 6 7 6 7 7 6 4 4
4 9 7 3 6 4 3 4 9 11 4 5 9 15 11 5 4 4 10 13 14 11 9 8 7 6 5 7 8 9 11 13 10 7 5 4 8 5 6 6 6 5 5 3
8 2 4 8 6 5 6 6 8 9 8 5 6 7 5 1 3 2 6 10 10 14 12 9 7 6 5 7 9 9 10 10 9 10 9 8 8 6 4 4 4 3 2 3
6 3 6 7 7 4 8 6 9 7 3 4 2 5 3 5 10 5 7 9 10 12 10 11 10 8 8 7 8 10 10 10 9 11 10 12 6 7 3 3 3 3 4 4
5 5 6 8 14 9 7 5 5 5 5 3 4 5 3 2 6 6 6 8 8 9 11 12 11 10 9 9 10 10 10 10 8 8 8 7 7 7 6 5 6 5 5 5
6 1 3 3 4 10 2 3 1 1 3 6 4 5 4 4 4 4 3 4 7 9 11 11 10 9 9 9 10 10 11 8 8 8 8 8 11 9 7 6 4 3 3 2
3 11 6 4 8 4 4 3 3 5 6 7 1 4 7 9 7 8 9 7 8 10 12 13 13 11 11 10 11 10 10 10 9 10 10 10 10 9 8 7 4 4 3 2
7 4 11 8 16 7 6 6 5 7 6 5 3 5 3 5 6 8 9 9 10 11 12 15 15 13 13 12 10 10 10 11 11 10 11 9 9 6 6 5 4 3 2 2
5 4 2 4 4 11 5 7 2 2 2 4 4 4 10 9 12 9 6 6 11 13 15 16 15 13 12 11 10 10 10 10 11 11 9 8 8 7 6 6 5 4 3 2
5 7 7 3 4 3 5 8 3 2 5 8 5 4 6 7 11 7 9 10 11 12 14 15 14 13 11 11 10 10 10 11 11 10 8 7 7 7 6 6 5 4 2 0
4 5 4 1 7 11 5 5 1 2 2 6 8 6 6 11 11 12 10 10 12 14 14 13 13 14 12 11 12 11 11 11 10 8 7 7 6 6 5 4 2 2 1 2
3 2 4 10 2 5 8 12 8 6 5 2 3 7 5 9 11 10 14 8 11 15 14 13 14 14 14 13 12 11 10 10 8 8 7 6 6 6 3 1 1 1 4 4
4 2 3 4 4 3 2 2 2 0 2 12 10 7 2 8 11 12 13 8 12 15 16 16 15 14 14 14 13 11 10 9 8 8 7 6 5 4 1 0 2 3 6 7
1 2 5 5 1 0 5 5 3 5 4 9 11 16 11 13 14 16 11 8 11 14 16 16 15 15 14 13 12 11 10 9 9 8 7 5 3 2 1 2 4 6 7 7
4 4 4 9 10 10 12 14 12 11 12 8 15 16 15 14 12 13 11 9 13 17 19 18 17 15 14 13 12 11 10 9 9 8 5 3 2 2 3 4 5 7 7 6
3 2 4 6 8 11 16 17 15 16 17 16 20 21 20 19 11 12 11 12 16 19 20 19 17 16 15 13 11 11 10 9 8 5 3 3 2 3 5 6 6 6 7 6
4 3 2 8 4 12 18 16 21 19 18 17 16 15 17 13 13 15 13 15 19 16 17 19 19 18 16 15 13 13 11 9 7 5 4 3 3 5 6 5 5 6 7 7
6 4 4 6 6 14 8 4 5 9 14 15 15 15 16 15 13 14 11 14 16 16 19 20 18 16 16 13 12 12 11 9 7 6 4 3 4 3 4 5 6 7 7 7
17 11 6 6 11 19 22 17 10 8 20 9 11 14 14 9 5 14 15 15 15 16 18 19 18 17 15 16 15 13 11 9 7 6 5 4 4 3 5 6 6 6 7 7
11 14 8 5 7 8 3 3 7 7 13 8 16 15 12 5 5 11 5 8 10 12 14 16 17 16 17 16 15 14 11 9 7 5 4 5 4 3 6 6 7 5 6 8
4 7 16 13 9 11 10 16 11 7 4 18 16 17 12 7 7 10 3 5 10 14 17 15 15 15 14 15 15 13 12 10 7 6 5 4 3 3 5 5 5 6 7 7
8 8 6 9 9 14 9 8 20 9 18 18 23 19 17 16 15 8 2 8 14 16 16 18 16 12 13 15 14 12 10 8 7 6 5 3 1 2 3 5 5 5 6 7
5 5 3 8 5 2 12 11 10 15 17 20 18 22 18 17 14 9 6 10 13 16 15 14 16 16 15 14 12 12 10 9 7 5 4 2 0 2 3 5 6 5 5 6
4 3 5 8 8 17 18 21 21 20 16 20 21 20 20 18 13 10 8 9 10 13 15 16 19 17 15 12 11 12 10 8 7 5 4 1 1 4 4 4 4 5 5 5
5 7 8 19 19 23 22 14 14 19 24 25 26 22 23 18 11 10 11 12 12 12 13 16 18 16 15 11 12 12 9 7 6 4 3 1 2 3 4 5 5 4 4 4
11 13 10 13 15 17 18 19 23 28 27 28 26 25 20 12 9 13 12 13 14 14 14 15 17 16 15 13 13 10 8 6 5 4 2 2 3 4 5 5 5 8 9 3
Wind_Direction
167 204 207 191 193 171 219 259 280 275 271 279 269 278 283 314 293 240 231 221 215 221 180 163 139 166 173 191 181 178 173 164 163 158 156 154 146 140 135 125 116 112 121 111
163 229 212 184 169 180 212 271 279 291 238 268 302 290 288 269 272 252 241 230 220 198 182 153 149 156 174 166 170 168 171 165 172 160 146 142 142 145 136 122 106 94 104 117
215 185 172 189 181 223 246 257 267 269 313 264 294 264 246 235 300 304 249 243 222 212 193 167 157 147 139 146 151 157 159 156 147 138 127 121 113 125 138 130 115 84 101 110
232 218 206 194 239 205 277 225 262 266 285 286 15 285 268 328 304 209 212 226 225 211 188 169 157 151 151 141 137 130 131 128 141 149 144 153 151 150 118 125 103 94 74 74
200 192 191 213 241 200 252 184 272 280 239 272 202 245 268 301 299 307 212 207 218 204 186 171 156 150 133 142 132 123 128 131 144 140 145 144 125 113 124 127 112 90 92 80
239 231 206 238 178 188 131 215 192 135 189 235 227 248 255 300 297 284 54 203 204 187 174 164 145 133 129 131 130 132 126 129 124 124 125 126 132 132 133 132 144 145 131 116
221 238 230 194 256 173 186 266 260 221 214 255 52 235 262 267 264 260 308 286 208 189 174 163 157 154 148 146 142 136 139 124 119 115 114 119 125 127 138 153 151 155 160 169
215 243 214 195 224 228 195 209 232 247 248 270 157 237 241 263 269 283 301 273 200 189 183 176 171 165 162 156 149 136 135 133 124 120 117 118 125 132 132 144 153 146 146 160
184 252 256 219 205 195 163 215 317 182 61 263 272 264 271 251 269 254 257 195 192 195 188 180 173 174 168 151 148 146 141 135 127 123 124 131 133 131 139 150 162 150 161 166
208 266 249 167 160 101 230 144 191 186 239 249 223 256 259 280 282 261 239 226 202 200 186 182 176 181 170 159 149 150 153 144 134 132 135 132 135 138 156 177 166 131 126 58
169 230 217 219 213 229 183 204 141 265 261 264 264 256 221 262 288 287 286 236 204 192 188 179 182 180 166 157 157 154 154 142 134 132 129 137 153 162 179 169 119 75 337 304
27 206 243 254 252 320 248 246 211 244 231 226 283 258 240 259 281 282 286 228 204 188 181 181 175 168 164 163 162 162 148 139 140 141 150 166 173 179 176 113 107 271 286 281
349 231 262 169 133 136 212 184 218 165 287 251 253 257 270 278 276 268 268 211 190 189 179 178 173 172 172 169 164 161 149 149 153 160 169 178 176 171 139 339 337 289 282 285
185 264 254 256 304 25 255 221 252 235 248 259 242 273 261 272 273 280 254 233 198 188 182 177 176 176 171 167 166 157 158 163 162 173 184 175 162 176 223 304 286 282 286 289
42 279 295 271 267 258 255 257 256 235 246 255 277 261 268 267 267 278 274 219 194 190 189 186 180 173 171 163 160 164 165 170 170 179 177 170 185 215 244 265 278 285 286 288
357 290 336 285 287 271 266 257 259 249 253 259 260 268 263 262 267 265 245 220 218 205 196 187 178 171 169 164 163 170 169 171 170 170 184 189 236 254 257 271 276 279 291 291
295 239 268 255 306 302 275 257 237 244 242 242 257 257 278 252 244 254 248 224 228 212 198 187 177 177 170 172 168 170 167 155 161 168 194 223 223 261 276 269 270 287 294 296
224 236 250 267 288 253 263 31 321 249 248 244 256 268 269 258 270 273 257 240 232 207 189 186 180 172 169 161 156 151 156 158 163 188 188 217 244 258 259 267 280 289 291 287
216 224 246 239 225 276 294 281 259 241 267 275 267 274 287 271 282 278 252 231 242 207 187 177 176 167 155 156 159 155 152 156 177 185 185 217 218 242 272 274 282 293 294 298
202 215 233 213 237 250 55 352 167 317 282 341 268 268 291 211 258 266 353 217 198 184 170 176 166 159 153 157 152 146 150 165 183 180 203 193 217 247 274 284 291 294 294 292
155 197 220 230 249 264 247 271 283 269 342 344 347 340 325 259 295 331 355 153 163 158 163 151 156 159 154 143 144 146 156 170 167 159 178 198 211 269 277 293 287 294 298 304
194 184 187 213 237 259 3 258 245 346 321 328 323 319 317 306 292 301 243 161 153 151 151 155 145 142 140 141 144 147 154 148 151 158 180 193 189 274 291 293 296 296 306 307
246 255 242 221 232 324 294 313 307 309 306 316 325 314 312 302 281 255 213 183 165 153 151 143 133 135 134 140 142 147 141 145 149 171 167 142 47 302 292 297 303 306 310 315
269 343 255 297 272 266 304 312 309 318 323 318 313 316 315 297 278 227 195 175 162 150 143 137 134 135 132 136 140 132 138 149 161 162 138 132 321 310 300 298 294 302 312 314
254 320 266 269 279 287 281 291 323 318 319 318 309 307 309 294 261 209 181 165 152 140 145 140 138 137 134 136 131 125 142 156 150 138 131 116 323 311 315 303 300 300 289 303
225 236 238 258 278 268 284 299 311 304 302 298 298 300 300 277 226 188 171 154 142 143 140 127 122 128 137 136 125 132 147 155 147 151 126 25 335 318 310 312 310 222 254 251